Amsterdam, Netherlands

12:40 PM CET on February 28, 2017 (GMT +0100)
Schiphol

Weather History for EHAM - February, 2013

Change the Weather History Date:

Wednesday, February 27, 2013

  Actual Average Record
Temperature  
Mean Temperature 34 °F -  
Max Temperature 37 °F 48 °F 60 °F (2003)
Min Temperature 32 °F 36 °F 24 °F (2004)
Degree Days  
Heating Degree Days 30    
Moisture  
Dew Point 30 °F    
Average Humidity 85    
Maximum Humidity 93    
Minimum Humidity 67    
Precipitation  
Precipitation 0.00 in - - ()
Sea Level Pressure  
Sea Level Pressure 30.51 in    
Wind  
Wind Speed 12 mph ()    
Max Wind Speed 17 mph    
Max Gust Speed -    
Visibility 4.1 miles    
Events      
Averages and records for this station are not official NWS values.
T = Trace of Precipitation, MM = Missing Value Source: Averaged Metar Reports

Daily Weather History Graph

Daily Weather History Graph

Search for Another Location

Airport or City:

Trip Planner

Search our weather history database for the weather conditions in past years. The results will help you decide how hot, cold, wet, or windy it might be!

Date:

Astronomy

Feb. 27, 2013 Rise Set
Actual Time 7:31 AM CET 6:16 PM CET
Civil Twilight 6:57 AM CET 6:51 PM CET
Nautical Twilight 6:17 AM CET 7:30 PM CET
Astronomical Twilight 5:38 AM CET 8:09 PM CET
Moon 8:44 PM CET (2/27) 7:39 AM CET (2/27)
Length of Visible Light 11h 53m
Length of Day
10h 45m
Full, 97% of the Moon is Illuminated
Feb 27
Full
Mar 4
Last Quarter
Mar 11
New
Mar 19
First Quarter
Mar 27
Full

Hourly Weather History & Observations

Time (CET) Temp. Windchill Dew Point Humidity Pressure Visibility Wind Dir Wind Speed Gust Speed Precip Events Conditions
12:25 AM 33.8 °F 23.9 °F 32.0 °F 93% 30.54 in 2.2 mi NE 15.0 mph - N/A   Overcast
12:55 AM 33.8 °F 24.8 °F 32.0 °F 93% 30.54 in 2.2 mi NE 12.7 mph - N/A   Overcast
1:25 AM 33.8 °F 23.5 °F 32.0 °F 93% 30.54 in 2.2 mi NE 16.1 mph - N/A   Overcast
1:55 AM 33.8 °F 23.5 °F 32.0 °F 93% 30.54 in 2.2 mi ENE 16.1 mph - N/A   Overcast
2:25 AM 33.8 °F 23.9 °F 32.0 °F 93% 30.54 in 2.2 mi NE 15.0 mph - N/A   Overcast
2:55 AM 33.8 °F 23.2 °F 32.0 °F 93% 30.54 in 2.2 mi NE 17.3 mph - N/A   Overcast
3:25 AM 33.8 °F 24.3 °F 32.0 °F 93% 30.54 in - ENE 13.8 mph - N/A   Overcast
3:55 AM 33.8 °F 24.3 °F 32.0 °F 93% 30.51 in 2.5 mi ENE 13.8 mph - N/A   Overcast
4:00 AM 33 °F - 31 °F 92% 30.54 in 2 mi ENE 13.4 mph - -   Mist
4:25 AM 33.8 °F 24.3 °F 30.2 °F 87% 30.51 in - NE 13.8 mph - N/A   Overcast
4:55 AM 33.8 °F 25.3 °F 30.2 °F 87% 30.51 in 3.1 mi NE 11.5 mph - N/A   Overcast
5:25 AM 33.8 °F 24.3 °F 30.2 °F 87% 30.51 in 3.1 mi NE 13.8 mph - N/A   Overcast
5:55 AM 33.8 °F 23.9 °F 30.2 °F 87% 30.51 in 3.1 mi NE 15.0 mph - N/A   Overcast
6:25 AM 32.0 °F 21.2 °F 28.4 °F 87% 30.51 in 3.7 mi NE 16.1 mph - N/A   Overcast
6:55 AM 32.0 °F 21.6 °F 28.4 °F 87% 30.51 in 3.7 mi ENE 15.0 mph - N/A   Overcast
7:00 AM 33 °F - 29 °F 78% 30.53 in 4 mi ENE 13.4 mph - -   Mist
7:25 AM 32.0 °F 22.1 °F 28.4 °F 87% 30.51 in 4.3 mi ENE 13.8 mph - N/A   Overcast
7:55 AM 32.0 °F 23.6 °F 28.4 °F 87% 30.51 in 4.3 mi NE 10.4 mph - N/A   Overcast
8:25 AM 32.0 °F 23.0 °F 28.4 °F 87% 30.51 in 4.3 mi NE 11.5 mph - N/A   Overcast
8:55 AM 33.8 °F 25.3 °F 28.4 °F 81% 30.54 in 4.3 mi NE 11.5 mph - N/A   Mostly Cloudy
9:25 AM 33.8 °F 25.8 °F 28.4 °F 81% 30.54 in 4.3 mi NE 10.4 mph - N/A   Overcast
9:55 AM 33.8 °F 24.3 °F 28.4 °F 81% 30.54 in 4.3 mi NE 13.8 mph - N/A   Overcast
10:00 AM 33 °F - 28 °F 77% 30.55 in 4 mi NE 13.4 mph - -   Mist
10:25 AM 33.8 °F 24.3 °F 28.4 °F 81% 30.54 in 4.3 mi NE 13.8 mph - N/A   Overcast
10:55 AM 33.8 °F 24.3 °F 28.4 °F 81% 30.54 in 5.0 mi NE 13.8 mph - N/A   Mostly Cloudy
11:25 AM 33.8 °F 23.9 °F 28.4 °F 81% 30.54 in 5.0 mi NE 15.0 mph - N/A   Mostly Cloudy
11:55 AM 33.8 °F 23.9 °F 28.4 °F 81% 30.54 in 5.0 mi ENE 15.0 mph - N/A   Overcast
12:25 PM 35.6 °F 27.5 °F 30.2 °F 81% 30.54 in 4.3 mi ENE 11.5 mph - N/A   Mostly Cloudy
12:55 PM 35.6 °F 27.5 °F 30.2 °F 81% 30.54 in 5.0 mi NE 11.5 mph - N/A   Mostly Cloudy
1:00 PM 35 °F - 29 °F 73% 30.54 in 5 mi ENE 13.4 mph - -   Mist
1:25 PM 35.6 °F 27.5 °F 30.2 °F 81% 30.51 in 5.0 mi ENE 11.5 mph - N/A   Mostly Cloudy
1:55 PM 35.6 °F 27.1 °F 30.2 °F 81% 30.51 in 5.6 mi NE 12.7 mph - N/A   Mostly Cloudy
2:25 PM 35.6 °F 27.5 °F 30.2 °F 81% 30.51 in 5.6 mi NE 11.5 mph - N/A   Scattered Clouds
2:55 PM 37.4 °F 29.3 °F 30.2 °F 75% 30.51 in 6.2 mi ENE 12.7 mph - N/A   Scattered Clouds
3:25 PM 37.4 °F 29.8 °F 30.2 °F 75% 30.51 in 6.2 mi NE 11.5 mph - N/A   Partly Cloudy
3:55 PM 37.4 °F 29.8 °F 30.2 °F 75% 30.48 in 6.2 mi ENE 11.5 mph - N/A   Partly Cloudy
4:00 PM 37 °F - 30 °F 67% 30.50 in 6 mi ENE 11.2 mph - -   Light Haze
4:25 PM 37.4 °F 29.8 °F 30.2 °F 75% 30.48 in - ENE 11.5 mph - N/A   Clear
4:55 PM 37.4 °F 30.8 °F 30.2 °F 75% 30.48 in - ENE 9.2 mph - N/A   Clear
5:25 PM 35.6 °F 28.6 °F 30.2 °F 81% 30.48 in - ENE 9.2 mph - N/A   Clear
5:55 PM 33.8 °F 29.6 °F 28.4 °F 81% 30.48 in 5.6 mi ENE 4.6 mph - N/A   Unknown
6:25 PM 33.8 °F 30.8 °F 30.2 °F 87% 30.48 in 5.6 mi ENE 3.5 mph - N/A   Unknown
6:55 PM 33.8 °F 30.8 °F 28.4 °F 81% 30.48 in 5.6 mi East 3.5 mph - N/A   Partly Cloudy
7:00 PM 33 °F - 29 °F 80% 30.50 in 5 mi East 2.2 mph - -   Mist
7:25 PM 32.0 °F 28.7 °F 28.4 °F 87% 30.48 in 5.0 mi ENE 3.5 mph - N/A   Mostly Cloudy
7:55 PM 35.6 °F 29.2 °F 32.0 °F 87% 30.48 in 4.3 mi NNE 8.1 mph - N/A   Mostly Cloudy
8:25 PM 35.6 °F 29.2 °F 32.0 °F 87% 30.48 in 4.3 mi NNE 8.1 mph - N/A   Mostly Cloudy
8:55 PM 33.8 °F 25.8 °F 32.0 °F 93% 30.48 in 3.7 mi NNE 10.4 mph - N/A   Mostly Cloudy
9:25 PM 33.8 °F 25.8 °F 32.0 °F 93% 30.48 in 3.7 mi NNE 10.4 mph - N/A   Mostly Cloudy
9:55 PM 33.8 °F 26.4 °F 32.0 °F 93% 30.48 in 3.7 mi NNE 9.2 mph - N/A   Mostly Cloudy
10:00 PM 34 °F - 32 °F 88% 30.49 in 3 mi NE 8.9 mph - -   Mist
10:25 PM 33.8 °F 27.7 °F 32.0 °F 93% 30.48 in 3.1 mi NNE 6.9 mph - N/A   Mostly Cloudy
10:55 PM 33.8 °F 28.6 °F 32.0 °F 93% 30.48 in 3.1 mi NNE 5.8 mph - N/A   Overcast
11:25 PM 33.8 °F 28.6 °F 32.0 °F 93% 30.48 in 2.8 mi NE 5.8 mph - N/A   Mostly Cloudy
11:55 PM 32.0 °F 27.5 °F 30.2 °F 93% 30.48 in 2.8 mi ENE 4.6 mph - N/A   Scattered Clouds